Home   Weather   Mwanza   Past weeks

Flag for Tanzania Past Weather in Mwanza, Tanzania — Yesterday and Last 2 Weeks

Now
72 °F

Passing clouds.


Feels Like: 69 °F
Forecast: 67 / 76 °F
Wind: No wind

Location: Mwanza Airport

Current Time: Dec 10, 2016 at 12:41:41 am

Latest Report: Dec 9, 2016 at 11:00 pm


Visibility: N/A

Pressure: 29.98 "Hg (26.25 "Hg at 1146m altitude)

Humidity: 88%

Dew Point: 68 °F

Location of MwanzaLocation

Past Weather in Mwanza — Graph

°F

Mwanza Temperature Yesterday

Maximum temperature yesterday: 81 °F (at 11:00 am)
Minimum temperature yesterday: 68 °F (at 12:00 am)
Average temperature yesterday: 76 °F

High & Low Weather Summary for the Past Weeks

 TemperatureHumidityPressure
High84 °F (Nov 27, 3:00 pm)100% (Nov 25, 7:00 am)30.09 "Hg (Nov 25, 7:00 am)
Low61 °F (Nov 25, 6:00 am)48% (Nov 26, 1:00 pm)29.86 "Hg (Nov 25, 5:00 pm)
Average76 °F73%29.99 "Hg
* Reported Nov 25 12:00 am — Dec 9 11:00 pm, Mwanza, Weather by CustomWeather, © 2016

Note: Actual official high and low records may vary slightly from our data, if they occured in-between our weather recording intervals... More about our weather records

Advertising

Mwanza Weather History for the Previous 24 Hours

Scroll right to see more
 ConditionsComfort  
Time TempWeatherWind HumidityBarometerVisibility
11:00 pm
Fri, Dec 9
72 °FPassing clouds.No wind88%29.98 "HgN/A
10:00 pm72 °FPassing clouds.No wind94%29.98 "HgN/A
9:00 pm73 °FPassing clouds.No wind83%29.95 "HgN/A
8:00 pm73 °FPassing clouds.No wind83%29.95 "HgN/A
7:00 pm77 °FPassing clouds.6 mph69%29.95 "HgN/A
6:00 pm81 °FPassing clouds.6 mph54%29.92 "HgN/A
5:00 pm81 °FPassing clouds.12 mph62%29.95 "HgN/A
4:00 pm81 °FScattered clouds.10 mph62%29.95 "HgN/A
3:00 pm81 °FScattered clouds.12 mph62%29.98 "HgN/A
2:00 pm81 °FPartly sunny.13 mph58%30.01 "HgN/A
1:00 pm81 °FPartly sunny.12 mph58%30.01 "HgN/A
12:00 pm81 °FScattered clouds.12 mph58%30.04 "HgN/A
11:00 am81 °FScattered clouds.7 mph54%30.07 "HgN/A
10:00 am79 °FPassing clouds.9 mph70%30.07 "HgN/A
9:00 am75 °FPassing clouds.8 mph69%30.07 "HgN/A
8:00 am73 °FPartly sunny.6 mph74%30.04 "HgN/A
7:00 am68 °FPartly sunny.6 mph94%30.04 "HgN/A
6:00 am68 °FPassing clouds.5 mph94%30.01 "HgN/A
3:00 am72 °FPassing clouds.6 mph83%29.98 "HgN/A
12:00 am68 °FPassing clouds.12 mph88%30.01 "HgN/A
Weather by CustomWeather, © 2016

See weather overviewHow to use our weather pages